Weather History for Bangkok (Don Mueang), Thailand

Change the Weather History Date:

Friday, August 17, 2012

  Actual Average Record
Temperature  
Mean Temperature 86 °F -  
Max Temperature 92 °F 90 °F 98 °F (1996)
Min Temperature 79 °F 76 °F 75 °F (1999)
Cooling Degree Days 20    
Growing Degree Days 36 (Base 50)    
Moisture  
Dew Point 73 °F    
Average Humidity 67    
Maximum Humidity 84    
Minimum Humidity 43    
Precipitation  
Precipitation 0.00 in 0.30 in - ()
Sea Level Pressure  
Sea Level Pressure 29.67 in    
Wind  
Wind Speed 7 mph ()    
Max Wind Speed 15 mph    
Max Gust Speed -    
Visibility 6.2 miles    
Events      
Averages and records for this station are not official NWS values.
T = Trace of Precipitation, MM = Missing Value Source: Averaged Metar Reports

Daily Weather History Graph

Daily Weather History Graph

Search for Another Location

Airport:

Trip Planner

Search our weather history database for the weather conditions in past years. The results will help you decide how hot, cold, wet, or windy it might be!

Date:

Astronomy

Aug. 17, 2012 Rise Set
Actual Time 6:04 AM ICT 6:38 PM ICT
Civil Twilight 5:42 AM ICT 7:00 PM ICT
Nautical Twilight 5:16 AM ICT 7:26 PM ICT
Astronomical Twilight 4:50 AM ICT 7:52 PM ICT
Moon 5:29 AM ICT (8/17) 6:14 PM ICT (8/17)
Length of Visible Light 13h 17m
Length of Day
12h 33m
Waning Crescent, 0% of the Moon is Illuminated
Aug 17
Waning Crescent
Aug 17
New
Aug 24
First Quarter
Aug 31
Full
Sep 8
Last Quarter

Hourly Weather History & Observations

Time (ICT) Temp. Heat Index Dew Point Humidity Pressure Visibility Wind Dir Wind Speed Gust Speed Precip Events Conditions
12:00 AM 80.6 °F 86.2 °F 75.2 °F 84% 29.74 in 6.2 mi WSW 5.8 mph - N/A   Mostly Cloudy
12:30 AM 80.6 °F 85.4 °F 73.4 °F 79% 29.74 in 6.2 mi SW 9.2 mph - N/A   Mostly Cloudy
1:00 AM 80 °F - 75 °F 79% 29.73 in 6 mi WSW 9.2 mph - -   Partly Cloudy
1:00 AM 80.6 °F 86.2 °F 75.2 °F 84% 29.74 in 6.2 mi WSW 9.2 mph - N/A   Mostly Cloudy
1:30 AM 80.6 °F 86.2 °F 75.2 °F 84% 29.68 in 6.2 mi SW 9.2 mph - N/A   Mostly Cloudy
2:00 AM 80.6 °F 86.2 °F 75.2 °F 84% 29.68 in 6.2 mi SW 9.2 mph - N/A   Mostly Cloudy
2:30 AM 80.6 °F 86.2 °F 75.2 °F 84% 29.68 in 6.2 mi SW 4.6 mph - N/A   Mostly Cloudy
3:00 AM 80.6 °F 86.2 °F 75.2 °F 84% 29.65 in 6.2 mi WSW 6.9 mph - N/A   Mostly Cloudy
3:30 AM 80.6 °F 86.2 °F 75.2 °F 84% 29.65 in 6.2 mi SW 3.5 mph - N/A   Mostly Cloudy
4:00 AM 80.6 °F 85.4 °F 73.4 °F 79% 29.65 in 6.2 mi WSW 3.5 mph - N/A   Mostly Cloudy
4:30 AM 80.6 °F 86.2 °F 75.2 °F 84% 29.65 in 6.2 mi WSW 4.6 mph - N/A   Mostly Cloudy
5:00 AM 80.6 °F 86.2 °F 75.2 °F 84% 29.65 in 6.2 mi WSW 2.3 mph - N/A   Mostly Cloudy
5:30 AM 80.6 °F 85.4 °F 73.4 °F 79% 29.65 in 6.2 mi WSW 2.3 mph - N/A   Mostly Cloudy
6:00 AM 80.6 °F 85.4 °F 73.4 °F 79% 29.68 in 6.2 mi WSW 4.6 mph - N/A   Mostly Cloudy
6:30 AM 80.6 °F 86.2 °F 75.2 °F 84% 29.68 in 6.2 mi WSW 3.5 mph - N/A   Mostly Cloudy
7:00 AM 80 °F - 74 °F 78% 29.69 in 6 mi WSW 3.5 mph - -   Scattered Clouds
7:00 AM 80.6 °F 86.2 °F 75.2 °F 84% 29.68 in 6.2 mi WSW 3.5 mph - N/A   Mostly Cloudy
7:30 AM 80.6 °F 86.2 °F 75.2 °F 84% 29.68 in 6.2 mi WSW 3.5 mph - N/A   Mostly Cloudy
8:00 AM 80.6 °F 86.2 °F 75.2 °F 84% 29.71 in 6.2 mi WSW 2.3 mph - N/A   Mostly Cloudy
8:30 AM 84.2 °F 90.9 °F 73.4 °F 70% 29.71 in 6.2 mi WSW 3.5 mph - N/A   Mostly Cloudy
9:00 AM 86.0 °F 91.8 °F 71.6 °F 62% 29.71 in 6.2 mi WSW 3.5 mph - N/A   Mostly Cloudy
9:30 AM 87.8 °F 93.8 °F 71.6 °F 58% 29.71 in 6.2 mi WSW 4.6 mph - N/A   Mostly Cloudy
10:00 AM 87.8 °F 95.6 °F 73.4 °F 62% 29.71 in 6.2 mi West 9.2 mph - N/A   Mostly Cloudy
10:30 AM 89.6 °F 96.2 °F 71.6 °F 55% 29.71 in 6.2 mi West 10.4 mph - N/A   Mostly Cloudy
11:00 AM 89.6 °F 96.2 °F 71.6 °F 55% 29.71 in 6.2 mi West 6.9 mph - N/A   Mostly Cloudy
11:30 AM 89.6 °F 94.7 °F 69.8 °F 52% 29.68 in 6.2 mi West 9.2 mph - N/A   Mostly Cloudy
12:00 PM 91.4 °F 98.4 °F 71.6 °F 52% 29.68 in 6.2 mi West 11.5 mph - N/A   Mostly Cloudy
12:30 PM 91.4 °F 96.8 °F 69.8 °F 49% 29.65 in 6.2 mi West 9.2 mph - N/A   Mostly Cloudy
1:00 PM 91 °F - 71 °F 43% 29.67 in 6 mi West 5.8 mph - -   Scattered Clouds
1:00 PM 91.4 °F 98.4 °F 71.6 °F 52% 29.65 in 6.2 mi West 5.8 mph - N/A   Mostly Cloudy
1:30 PM 91.4 °F 96.8 °F 69.8 °F 49% 29.65 in 6.2 mi WNW 10.4 mph - N/A   Mostly Cloudy
2:00 PM 93.2 °F 98.8 °F 69.8 °F 46% 29.62 in 6.2 mi WNW 10.4 mph - N/A   Mostly Cloudy
2:30 PM 91.4 °F 96.8 °F 69.8 °F 49% 29.62 in 6.2 mi West 11.5 mph - N/A   Mostly Cloudy
3:00 PM 93.2 °F 97.7 °F 68.0 °F 44% 29.59 in 6.2 mi WNW 15.0 mph - N/A   Mostly Cloudy
3:30 PM 93.2 °F 97.7 °F 68.0 °F 44% 29.59 in 6.2 mi West 11.5 mph - N/A   Mostly Cloudy
4:00 PM 91.4 °F 96.8 °F 69.8 °F 49% 29.59 in 6.2 mi West 11.5 mph - N/A   Mostly Cloudy
4:30 PM 91.4 °F 96.8 °F 69.8 °F 49% 29.59 in 6.2 mi West 10.4 mph - N/A   Mostly Cloudy
5:00 PM 89.6 °F 94.7 °F 69.8 °F 52% 29.59 in 6.2 mi WSW 11.5 mph - N/A   Mostly Cloudy
5:30 PM 89.6 °F 94.7 °F 69.8 °F 52% 29.59 in 6.2 mi WSW 8.1 mph - N/A   Mostly Cloudy
6:00 PM 87.8 °F 92.6 °F 69.8 °F 55% 29.59 in 6.2 mi WSW 5.8 mph - N/A   Mostly Cloudy
6:30 PM 89.6 °F 94.7 °F 69.8 °F 52% 29.62 in 6.2 mi West 9.2 mph - N/A   Mostly Cloudy
7:00 PM 86 °F - 73 °F 57% 29.63 in 6 mi WSW 8.1 mph - -   Scattered Clouds
7:00 PM 86.0 °F 93.4 °F 73.4 °F 66% 29.62 in 6.2 mi WSW 8.1 mph - N/A   Mostly Cloudy
7:30 PM 86.0 °F 93.4 °F 73.4 °F 66% 29.62 in 6.2 mi SW 10.4 mph - N/A   Mostly Cloudy
8:00 PM 84.2 °F 90.9 °F 73.4 °F 70% 29.65 in 6.2 mi SW 9.2 mph - N/A   Mostly Cloudy
8:30 PM 84.2 °F 90.9 °F 73.4 °F 70% 29.65 in 6.2 mi WSW 8.1 mph - N/A   Mostly Cloudy
9:00 PM 84.2 °F 92.3 °F 75.2 °F 74% 29.68 in 6.2 mi WSW 9.2 mph - N/A   Mostly Cloudy
9:30 PM 84.2 °F 90.9 °F 73.4 °F 70% 29.68 in 6.2 mi SW 8.1 mph - N/A   Mostly Cloudy
10:00 PM 84.2 °F 90.9 °F 73.4 °F 70% 29.71 in 6.2 mi WSW 8.1 mph - N/A   Mostly Cloudy
10:30 PM 84.2 °F 92.3 °F 75.2 °F 74% 29.71 in 6.2 mi SW 4.6 mph - N/A   Mostly Cloudy
11:00 PM 84.2 °F 92.3 °F 75.2 °F 74% 29.71 in 6.2 mi SW 4.6 mph - N/A   Mostly Cloudy
11:30 PM 84.2 °F 92.3 °F 75.2 °F 74% 29.71 in 6.2 mi WSW 5.8 mph - N/A   Mostly Cloudy